Barnstable Municipal Boardman Polando Field
KHYA : now visible

Airfield :











YOU CAN JOIN US ON...

 
LOGIN :

Register | Disclaimer

   EN    FR    IT 

 









Legend :    VFR   Marginal VFR   IFR   Intensive IFR   Very Intensive IFR
Visi :
Ceiling :
>= 8 km
>= 3000ft
5 to 8 km
1000 to 3000 ft
1500m to 5 km
500 to 1000 ft
800 to 1500m
200 to 500 ft
< 800m
< 200 ft
Symbols :   Thunderstorms  Fog  Heavy snow  Heavy precipitations  Wind > 20 kt






- Airport Elevation : 54 ft
- IATA code : HYA


KHYA - Barnstable Municipal Boardman Polando Field

CURRENT METAR :
  • 301556Z 36006KT 10SM CLR 24/17 A2969 RMK AO2 SLP054 T02440172 $

EXPIRED METARs :
  • 301456Z 33011KT 10SM CLR 23/17 A2967 RMK AO2 SLP048 T02330167 53009
  • 301356Z 35013G17KT 10SM CLR 23/17 A2966 RMK AO2 SLP046 T02330172

TAF KHYA
Valid from the 30 at 16:00 until the 31 at 12:00 UTC


301540Z 3016/3112 33011G20KT P6SM SKC
FM310000 31008KT P6SM SKC
KZBW FIR / North America



MET'MAP, your aeronautical weather chart ! - Copyright ORBIFLY December 2007 - Disclaimer

ORBIFLY MET'MAP TEAM :

Programming & Development : Alexandra Zaïnal
Concept & original design : Baudouin d'Aumeries
Assistance for programming : Marc-Olivier Méhu
Technical & hardware support : Manuel Goepfert

Contact : metmap@orbifly.com




SOURCES & CREDITS :

   NOAA       Earth
Advisory